Regional Weather Roundup
Issued by NWS

Home | Current Version | Previous Version | Text Only | Print | Product List | Glossary Off
Versions: 1 2 3 4 5 6 7 8 9 10 11 12 13 14 15 16 17 18 19 20 21 22 23 24 25 26 27 28

000
ASUS45 KCYS 222210
RWRWY

WYOMING REGIONAL WEATHER ROUNDUP
NATIONAL WEATHER SERVICE CHEYENNE WY
300 PM MST THU FEB 22 2018

NOTE:  "FAIR" INDICATES FEW OR NO CLOUDS BELOW 12,000 FEET
WITH NO SIGNIFICANT WEATHER AND/OR OBSTRUCTIONS TO VISIBILITY.

WYZ001-222300-
YELLOWSTONE NATIONAL PARK

CITY           SKY/WX    TMP DP  RH WIND       PRES   REMARKS
LK YELLOWSTONE   N/A     13   1  59 VRB3      29.84F
W YELLOWSTONE  NOT AVBL

$$
WYZ002>013-054>058-071-098>099-222300-
NORTHERN WYOMING

CITY           SKY/WX    TMP DP  RH WIND       PRES   REMARKS
JACKSON        FAIR      18   5  57 S5        29.89S WCI  11
CODY           FAIR      17   7  64 NE10      29.96S WCI   5
GREYBULL       FAIR       9   1  70 N5        30.02F WCI   1
WORLAND        FAIR      13   3  64 NE5       30.00R WCI   5
SHERIDAN       FAIR      22   8  55 NW5       30.03S WCI  16
BUFFALO        FAIR      25   6  44 N6        29.97S WCI  18
GILLETTE       FAIR      20   5  52 N8        29.98S WCI  10
HULETT         MOCLDY    25   7  46 NE7       30.00R WCI  17
NEWCASTLE      FAIR      21  12  68 W9        29.99S WCI  11

$$
WYZ014>020-022>026-101>103-222300-
CENTRAL WYOMING

CITY           SKY/WX    TMP DP  RH WIND       PRES   REMARKS
BIG PINEY      CLOUDY    18   2  49 S6        29.88F WCI  10
PINEDALE       CLOUDY    19   3  49 S8        29.88S WCI   9
DUBOIS           N/A    N/A N/A N/A MISG        N/A
LANDER         CLOUDY    12   3  67 CALM      29.92F
RIVERTON       FAIR      11  -1  58 NE3       29.94F
CASPER         FAIR      20   8  60 W7        29.93F WCI  11
DOUGLAS        FAIR      20  10  65 W8        29.96S WCI  10

$$
WYZ021-027>030-104>119-222300-
SOUTHERN WYOMING

CITY           SKY/WX    TMP DP  RH WIND       PRES   REMARKS
EVANSTON       LGT SNOW  16   7  67 E7        29.85F WCI   6
FORT BRIDGER   FLURRIES   9   6  90 CALM      29.91F
ROCK SPRINGS   FAIR      18   8  65 SW3       29.88F
DIXON          FAIR      26  14  61 NW3       29.93S
RAWLINS        CLOUDY    18  13  80 MISG      29.89S
SARATOGA       FLURRIES  21  12  68 CALM      29.89S
LARAMIE        LGT SNOW  18  13  80 N10       29.84S WCI   6
CHEYENNE       FAIR      27  15  61 N12       29.86S WCI  17
TORRINGTON     FAIR      28  17  63 NW6       29.97S WCI  22
PINE BLUFFS    MOCLDY    21  14  73 MISG      29.94R

$$




USA.gov is the U.S. government's official web portal to all federal, state and local government web resources and services.